• In Netherlands
  • List of Countries
  • For 7 days
  • Water Temperature
  • Satellite Maps
  • Weather Map
  • Weather Widgets
  • user-avatar
    Login

    Hourly Weather Kitzbuhel

    Today, 26 July, Wednesday

    Time Temperature Precipitation Wind Pressure Humidity
    00:00 +9°C° 0.5 mm 2 mps 671 mmHg 95%
    01:00 +9°C° 0.5 mm 2 mps 671 mmHg 95%
    02:00 +9°C° 0.4 mm 2 mps 671 mmHg 95%
    03:00 +9°C° 0.4 mm 2 mps 670 mmHg 95%
    04:00 +9°C° 0.4 mm 2 mps 670 mmHg 95%
    05:00 +9°C° 0.9 mm 2 mps 670 mmHg 95%
    06:00 +9°C° 0.9 mm 2 mps 670 mmHg 95%
    07:00 +9°C° 0.9 mm 2 mps 670 mmHg 95%
    08:00 +9°C° 1.9 mm 2 mps 671 mmHg 94%
    09:00 +10°C° 1.9 mm 2 mps 671 mmHg 93%
    10:00 +10°C° 1.9 mm 2 mps 671 mmHg 92%
    11:00 +10°C° 1.7 mm 2 mps 671 mmHg 92%
    12:00 +10°C° 1.7 mm 3 mps 672 mmHg 92%
    13:00 +11°C° 1.7 mm 3 mps 672 mmHg 91%
    14:00 +11°C° 1 mm 3 mps 672 mmHg 91%
    15:00 +12°C° 1 mm 2 mps 673 mmHg 91%
    16:00 +12°C° 1 mm 2 mps 673 mmHg 91%
    17:00 +12°C° 1 mm 2 mps 673 mmHg 93%
    18:00 +10°C° 1 mm 2 mps 673 mmHg 94%
    19:00 +10°C° 1 mm 2 mps 673 mmHg 95%
    20:00 +10°C° 1.2 mm 2 mps 673 mmHg 95%
    21:00 +9°C° 1.2 mm 2 mps 674 mmHg 96%
    22:00 +9°C° 1.2 mm 2 mps 674 mmHg 96%
    23:00 +9°C° 1 mm 2 mps 674 mmHg 96%

    Tomorrow, 27 July, Thursday

    Time Temperature Precipitation Wind Pressure Humidity
    00:00 +9°C° 1 mm 2 mps 674 mmHg 95%
    01:00 +9°C° 1 mm 2 mps 674 mmHg 95%
    02:00 +9°C° 0.2 mm 2 mps 674 mmHg 95%
    03:00 +9°C° 0.2 mm 2 mps 674 mmHg 95%
    04:00 +9°C° 0.2 mm 2 mps 674 mmHg 95%
    05:00 +10°C° 0 mm 2 mps 674 mmHg 91%
    06:00 +12°C° 0 mm 2 mps 675 mmHg 88%
    07:00 +13°C° 0 mm 2 mps 675 mmHg 85%
    08:00 +14°C° 0.1 mm 1 mps 675 mmHg 79%
    09:00 +15°C° 0.1 mm 1 mps 675 mmHg 73%
    10:00 +16°C° 0.1 mm 1 mps 675 mmHg 67%
    11:00 +15°C° 0.7 mm 1 mps 675 mmHg 72%
    12:00 +15°C° 0.7 mm 1 mps 675 mmHg 77%
    13:00 +14°C° 0.7 mm 1 mps 675 mmHg 83%
    14:00 +15°C° 0.9 mm 1 mps 675 mmHg 84%
    15:00 +15°C° 0.9 mm 1 mps 675 mmHg 85%
    16:00 +15°C° 0.9 mm 1 mps 675 mmHg 86%
    17:00 +15°C° 0.2 mm 1 mps 675 mmHg 87%
    18:00 +15°C° 0.2 mm 1 mps 675 mmHg 88%
    19:00 +15°C° 0.2 mm 1 mps 675 mmHg 89%
    20:00 +15°C° 0.1 mm 1 mps 675 mmHg 91%
    21:00 +14°C° 0.1 mm 1 mps 676 mmHg 92%
    22:00 +13°C° 0.1 mm 1 mps 676 mmHg 93%
    23:00 +13°C° 0.3 mm 1 mps 676 mmHg 93%

    Day after tomorrow, 28 July, Friday

    Time Temperature Precipitation Wind Pressure Humidity
    00:00 +13°C° 0.3 mm 1 mps 676 mmHg 93%
    01:00 +12°C° 0.3 mm 1 mps 676 mmHg 94%
    02:00 +12°C° 0.4 mm 1 mps 676 mmHg 94%
    03:00 +12°C° 0.4 mm 1 mps 676 mmHg 95%
    04:00 +12°C° 0.4 mm 1 mps 676 mmHg 95%
    05:00 +13°C° 0.1 mm 1 mps 676 mmHg 93%
    06:00 +14°C° 0.1 mm 1 mps 676 mmHg 91%
    07:00 +15°C° 0.1 mm 1 mps 677 mmHg 89%
    08:00 +18°C° 0.3 mm 1 mps 677 mmHg 84%
    09:00 +19°C° 0.3 mm 1 mps 677 mmHg 78%
    10:00 +21°C° 0.3 mm 1 mps 678 mmHg 73%
    11:00 +20°C° 0.4 mm 1 mps 678 mmHg 77%
    12:00 +19°C° 0.4 mm 1 mps 678 mmHg 82%
    13:00 +18°C° 0.4 mm 1 mps 677 mmHg 87%
    14:00 +18°C° 0.2 mm 2 mps 678 mmHg 82%
    15:00 +19°C° 0.2 mm 2 mps 678 mmHg 77%
    16:00 +21°C° 0.2 mm 2 mps 678 mmHg 72%
    17:00 +20°C° 0.2 mm 2 mps 678 mmHg 78%
    18:00 +20°C° 0.2 mm 1 mps 678 mmHg 84%
    19:00 +19°C° 0.2 mm 1 mps 679 mmHg 90%
    20:00 +16°C° 0 mm 1 mps 679 mmHg 92%
    21:00 +15°C° 0 mm 1 mps 679 mmHg 94%
    22:00 +14°C° 0 mm 1 mps 679 mmHg 96%
    23:00 +14°C° 0 mm 1 mps 679 mmHg 96%

    29 July, Saturday

    Time Temperature Precipitation Wind Pressure Humidity
    00:00 +13°C° 0 mm 1 mps 679 mmHg 95%
    01:00 +13°C° 0 mm 1 mps 679 mmHg 95%
    02:00 +13°C° 0 mm 1 mps 679 mmHg 94%
    03:00 +13°C° 0 mm 1 mps 679 mmHg 94%
    04:00 +13°C° 0 mm 1 mps 679 mmHg 94%
    05:00 +15°C° 0 mm 1 mps 679 mmHg 91%
    06:00 +16°C° 0 mm 1 mps 680 mmHg 88%
    07:00 +19°C° 0 mm 1 mps 680 mmHg 86%
    08:00 +20°C° 0.2 mm 1 mps 680 mmHg 81%
    09:00 +21°C° 0.2 mm 1 mps 681 mmHg 76%
    10:00 +23°C° 0.2 mm 1 mps 681 mmHg 71%
    11:00 +22°C° 0.6 mm 1 mps 681 mmHg 75%
    12:00 +22°C° 0.6 mm 1 mps 681 mmHg 78%
    13:00 +21°C° 0.6 mm 2 mps 681 mmHg 82%
    14:00 +21°C° 1.3 mm 1 mps 681 mmHg 85%
    15:00 +20°C° 1.3 mm 1 mps 680 mmHg 89%
    16:00 +20°C° 1.3 mm 1 mps 680 mmHg 92%
    17:00 +19°C° 3.3 mm 1 mps 680 mmHg 94%
    18:00 +18°C° 3.3 mm 1 mps 680 mmHg 96%
    19:00 +17°C° 3.3 mm 2 mps 680 mmHg 98%
    20:00 +16°C° 2.3 mm 2 mps 680 mmHg 97%
    21:00 +16°C° 2.3 mm 2 mps 680 mmHg 97%
    22:00 +15°C° 2.3 mm 2 mps 680 mmHg 96%
    23:00 +15°C° 0.6 mm 2 mps 680 mmHg 96%

    30 July, Sunday

    Time Temperature Precipitation Wind Pressure Humidity
    00:00 +15°C° 0.6 mm 1 mps 680 mmHg 95%
    01:00 +15°C° 0.6 mm 1 mps 680 mmHg 94%
    02:00 +15°C° 0.2 mm 1 mps 679 mmHg 94%
    03:00 +15°C° 0.2 mm 1 mps 679 mmHg 93%
    04:00 +15°C° 0.2 mm 1 mps 679 mmHg 93%
    05:00 +16°C° 0 mm 1 mps 679 mmHg 91%
    06:00 +16°C° 0 mm 1 mps 679 mmHg 90%
    07:00 +18°C° 0 mm 1 mps 679 mmHg 88%
    08:00 +21°C° 0 mm 1 mps 680 mmHg 76%
    09:00 +24°C° 0 mm 1 mps 680 mmHg 64%
    10:00 +26°C° 0 mm 1 mps 680 mmHg 52%
    11:00 +27°C° 0.2 mm 1 mps 680 mmHg 49%
    12:00 +28°C° 0.2 mm 1 mps 680 mmHg 46%
    13:00 +29°C° 0.2 mm 1 mps 680 mmHg 43%
    14:00 +28°C° 0.3 mm 1 mps 680 mmHg 47%
    15:00 +28°C° 0.3 mm 1 mps 680 mmHg 51%
    16:00 +27°C° 0.3 mm 1 mps 679 mmHg 55%
    17:00 +25°C° 0.5 mm 1 mps 679 mmHg 64%
    18:00 +24°C° 0.5 mm 1 mps 679 mmHg 73%
    19:00 +20°C° 0.5 mm 0 mps 679 mmHg 82%
    20:00 +21°C° 0.2 mm 1 mps 679 mmHg 85%
    21:00 +20°C° 0.2 mm 1 mps 679 mmHg 87%
    22:00 +18°C° 0.2 mm 1 mps 680 mmHg 90%
    23:00 +18°C° 0 mm 1 mps 680 mmHg 90%

    31 July, Monday

    Time Temperature Precipitation Wind Pressure Humidity
    00:00 +16°C° 0 mm 1 mps 680 mmHg 90%
    01:00 +16°C° 0 mm 1 mps 680 mmHg 90%
    02:00 +16°C° 0 mm 1 mps 679 mmHg 90%
    03:00 +16°C° 0 mm 1 mps 679 mmHg 89%
    04:00 +15°C° 0 mm 1 mps 679 mmHg 89%
    05:00 +18°C° 0 mm 1 mps 679 mmHg 86%
    06:00 +19°C° 0 mm 1 mps 680 mmHg 82%
    07:00 +21°C° 0 mm 1 mps 680 mmHg 79%
    08:00 +23°C° 0 mm 1 mps 681 mmHg 69%
    09:00 +26°C° 0 mm 2 mps 681 mmHg 58%
    10:00 +28°C° 0 mm 2 mps 681 mmHg 48%
    11:00 +29°C° 0 mm 2 mps 681 mmHg 46%
    12:00 +30°C° 0 mm 2 mps 681 mmHg 44%
    13:00 +31°C° 0 mm 2 mps 681 mmHg 42%
    14:00 +31°C° 0 mm 2 mps 680 mmHg 44%
    15:00 +30°C° 0 mm 2 mps 680 mmHg 46%
    16:00 +30°C° 0 mm 2 mps 680 mmHg 48%
    17:00 +28°C° 0 mm 2 mps 680 mmHg 58%
    18:00 +26°C° 0 mm 2 mps 679 mmHg 67%
    19:00 +25°C° 0 mm 2 mps 679 mmHg 77%
    20:00 +23°C° 0 mm 2 mps 679 mmHg 79%
    21:00 +21°C° 0 mm 2 mps 679 mmHg 82%
    22:00 +19°C° 0 mm 2 mps 679 mmHg 84%
    23:00 +19°C° 0 mm 2 mps 678 mmHg 84%
    Show more